| time (UTC) | temp F | wind direction | speed MPH | gust MPH | rain 1hr in | rain 24hr in | rain mn in | humidity % | barometer mb |
| 20260904091515 | 62 | 0.0 | 0.0 | 0.00 | 0.05 | 0.04 | 93 | 1012.7 | |
| 20260904090517 | 62 | 17 | 1.0 | 2.0 | 0.00 | 0.05 | 0.04 | 93 | 1012.6 |
| 20260904085517 | 62 | 17 | 1.0 | 2.0 | 0.00 | 0.05 | 0.04 | 93 | 1012.8 |
| 20260904084517 | 62 | 17 | 1.0 | 1.0 | 0.01 | 0.05 | 0.04 | 93 | 1012.7 |
| 20260904083515 | 62 | 17 | 1.0 | 2.0 | 0.02 | 0.05 | 0.04 | 93 | 1012.8 |
| 20260904082517 | 62 | 261 | 0.0 | 1.0 | 0.02 | 0.05 | 0.04 | 93 | 1012.9 |
| 20260904081517 | 62 | 212 | 1.0 | 2.0 | 0.03 | 0.05 | 0.04 | 92 | 1013.0 |
| 20260904080536 | 62 | 214 | 2.0 | 3.0 | 0.03 | 0.05 | 0.04 | 93 | 1013.1 |
| 20260904075517 | 62 | 199 | 1.0 | 3.0 | 0.04 | 0.05 | 0.04 | 93 | 1013.0 |
| 20260904074517 | 62 | 201 | 1.0 | 2.0 | 0.04 | 0.04 | 0.03 | 92 | 1013.0 |
| 20260904073517 | 62 | 133 | 1.0 | 2.0 | 0.03 | 0.03 | 0.02 | 92 | 1012.9 |
| 20260904072516 | 62 | 0.0 | 0.0 | 0.03 | 0.03 | 0.02 | 92 | 1012.9 | |
| 20260904071517 | 62 | 194 | 2.0 | 3.0 | 0.02 | 0.02 | 0.01 | 92 | 1012.9 |
| 20260904070517 | 63 | 165 | 1.0 | 2.0 | 0.02 | 0.02 | 0.01 | 92 | 1012.9 |
| 20260904065517 | 63 | 137 | 0.0 | 1.0 | 0.01 | 0.01 | 0.01 | 92 | 1012.9 |
| 20260904064516 | 63 | 216 | 1.0 | 2.0 | 0.00 | 0.00 | 0.00 | 92 | 1013.0 |
| 20260904063517 | 63 | 227 | 0.0 | 2.0 | 0.00 | 0.00 | 0.00 | 92 | 1012.9 |
| 20260904062537 | 63 | 205 | 1.0 | 3.0 | 0.00 | 0.00 | 0.00 | 92 | 1013.0 |
| 20260904061517 | 63 | 152 | 1.0 | 2.0 | 0.00 | 0.00 | 0.00 | 92 | 1013.0 |
| 20260904060516 | 63 | 197 | 3.0 | 5.0 | 0.00 | 0.00 | 0.00 | 91 | 1013.1 |
| 20260904055517 | 63 | 217 | 2.0 | 3.0 | 0.00 | 0.00 | 0.00 | 91 | 1013.1 |
| 20260904054516 | 63 | 197 | 2.0 | 3.0 | 0.00 | 0.00 | 0.00 | 91 | 1013.1 |
| 20260904053516 | 63 | 165 | 0.0 | 3.0 | 0.00 | 0.00 | 0.00 | 91 | 1013.3 |
| 20260904052557 | 63 | 198 | 0.0 | 2.0 | 0.00 | 0.00 | 0.00 | 91 | 1013.4 |
| 20260904051517 | 63 | 214 | 2.0 | 3.0 | 0.00 | 0.00 | 0.00 | 91 | 1013.6 |
| 20260904050517 | 63 | 202 | 1.0 | 2.0 | 0.00 | 0.00 | 0.00 | 90 | 1013.5 |
| 20260904045515 | 63 | 197 | 2.0 | 4.0 | 0.00 | 0.00 | 0.00 | 90 | 1013.6 |
| 20260904044556 | 63 | 179 | 1.0 | 3.0 | 0.00 | 0.00 | 0.00 | 90 | 1013.6 |
| 20260904043537 | 63 | 207 | 3.0 | 5.0 | 0.00 | 0.00 | 0.00 | 90 | 1013.6 |
| 20260904042516 | 64 | 152 | 2.0 | 6.0 | 0.00 | 0.00 | 0.00 | 89 | 1013.5 |
| 20260904041516 | 64 | 149 | 2.0 | 4.0 | 0.00 | 0.00 | 0.00 | 89 | 1013.5 |
| 20260904040516 | 64 | 151 | 2.0 | 3.0 | 0.00 | 0.00 | 0.00 | 89 | 1013.5 |
| 20260904035537 | 64 | 123 | 2.0 | 3.0 | 0.00 | 0.00 | 0.00 | 89 | 1013.4 |
| 20260904034536 | 64 | 179 | 1.0 | 5.0 | 0.00 | 0.00 | 0.00 | 88 | 1013.3 |
| 20260904033516 | 64 | 223 | 2.0 | 4.0 | 0.00 | 0.00 | 0.00 | 88 | 1013.3 |
| 20260904032516 | 64 | 0.0 | 0.0 | 0.00 | 0.00 | 0.00 | 87 | 1013.2 | |
| 20260904031515 | 64 | 0.0 | 0.0 | 0.00 | 0.00 | 0.00 | 87 | 1013.2 | |
| 20260904030516 | 65 | 235 | 1.0 | 4.0 | 0.00 | 0.00 | 0.00 | 86 | 1013.1 |
| 20260904025516 | 65 | 0.0 | 1.0 | 0.00 | 0.00 | 0.00 | 86 | 1013.1 | |
| 20260904024516 | 65 | 202 | 2.0 | 4.0 | 0.00 | 0.00 | 0.00 | 84 | 1013.2 |
| 20260904023537 | 66 | 212 | 3.0 | 6.0 | 0.00 | 0.00 | 0.00 | 83 | 1013.1 |
| 20260904022517 | 66 | 206 | 2.0 | 4.0 | 0.00 | 0.00 | 0.00 | 81 | 1013.2 |
| 20260904021516 | 67 | 215 | 5.0 | 9.0 | 0.00 | 0.00 | 0.00 | 79 | 1013.1 |
| 20260904020516 | 68 | 211 | 6.0 | 9.0 | 0.00 | 0.00 | 0.00 | 76 | 1013.2 |
| 20260904015516 | 69 | 238 | 3.0 | 5.0 | 0.00 | 0.00 | 0.00 | 74 | 1013.2 |
| 20260904014516 | 69 | 209 | 4.0 | 7.0 | 0.00 | 0.00 | 0.00 | 73 | 1013.2 |
| 20260904013516 | 69 | 201 | 5.0 | 7.0 | 0.00 | 0.00 | 0.00 | 71 | 1013.4 |
| 20260904012516 | 70 | 223 | 5.0 | 9.0 | 0.00 | 0.00 | 0.00 | 70 | 1013.3 |
| 20260904011517 | 70 | 191 | 5.0 | 10.0 | 0.00 | 0.00 | 0.00 | 69 | 1013.2 |
| 20260904010516 | 70 | 214 | 8.0 | 14.0 | 0.00 | 0.00 | 0.00 | 68 | 1013.4 |
| 20260904005516 | 70 | 231 | 7.0 | 12.0 | 0.00 | 0.00 | 0.00 | 68 | 1013.4 |
| 20260904004517 | 70 | 217 | 6.0 | 12.0 | 0.00 | 0.00 | 0.00 | 67 | 1013.3 |
| 20260904003517 | 71 | 200 | 8.0 | 15.0 | 0.00 | 0.00 | 0.00 | 66 | 1013.3 |
| 20260904002536 | 71 | 221 | 7.0 | 10.0 | 0.00 | 0.00 | 0.00 | 66 | 1013.4 |
| 20260904001516 | 71 | 235 | 5.0 | 9.0 | 0.00 | 0.00 | 0.00 | 67 | 1013.3 |
| 20260904000517 | 72 | 240 | 8.0 | 13.0 | 0.00 | 0.00 | 0.00 | 65 | 1013.4 |
| 20260903235537 | 71 | 241 | 5.0 | 7.0 | 0.00 | 0.00 | 0.00 | 67 | 1013.3 |
| 20260903234516 | 71 | 226 | 5.0 | 12.0 | 0.00 | 0.00 | 0.00 | 67 | 1013.4 |
| 20260903233516 | 72 | 223 | 9.0 | 13.0 | 0.00 | 0.00 | 0.00 | 66 | 1013.5 |
| 20260903232516 | 72 | 198 | 5.0 | 10.0 | 0.00 | 0.00 | 0.00 | 65 | 1013.5 |
| 20260903231516 | 72 | 193 | 6.0 | 13.0 | 0.00 | 0.00 | 0.00 | 66 | 1013.6 |
| 20260903230516 | 72 | 220 | 7.0 | 15.0 | 0.00 | 0.00 | 0.00 | 65 | 1013.7 |
| 20260903225516 | 72 | 227 | 8.0 | 11.0 | 0.00 | 0.00 | 0.00 | 66 | 1013.9 |
| 20260903224516 | 71 | 215 | 5.0 | 12.0 | 0.00 | 0.00 | 0.00 | 65 | 1014.0 |
| 20260903223516 | 72 | 227 | 6.0 | 13.0 | 0.00 | 0.00 | 0.00 | 67 | 1014.1 |
| 20260903222516 | 71 | 232 | 8.0 | 12.0 | 0.00 | 0.00 | 0.00 | 67 | 1014.1 |
| 20260903221516 | 72 | 214 | 9.0 | 12.0 | 0.00 | 0.00 | 0.00 | 68 | 1014.4 |
| 20260903220516 | 71 | 194 | 6.0 | 12.0 | 0.00 | 0.00 | 0.00 | 69 | 1014.4 |
| 20260903215516 | 71 | 229 | 8.0 | 12.0 | 0.00 | 0.00 | 0.00 | 70 | 1014.5 |
| 20260903214516 | 70 | 228 | 5.0 | 10.0 | 0.00 | 0.00 | 0.00 | 71 | 1014.5 |
| 20260903213536 | 69 | 190 | 6.0 | 12.0 | 0.00 | 0.00 | 0.00 | 72 | 1014.6 |
| 20260903212516 | 69 | 221 | 7.0 | 11.0 | 0.00 | 0.00 | 0.00 | 71 | 1014.9 |
| 20260903211536 | 69 | 228 | 5.0 | 8.0 | 0.00 | 0.00 | 0.00 | 72 | 1014.8 |
| 20260903210536 | 69 | 161 | 4.0 | 7.0 | 0.00 | 0.00 | 0.00 | 73 | 1014.9 |
| 20260903205516 | 68 | 214 | 5.0 | 10.0 | 0.00 | 0.00 | 0.00 | 73 | 1014.9 |
| 20260903204516 | 68 | 219 | 7.0 | 9.0 | 0.00 | 0.00 | 0.00 | 74 | 1015.0 |
| 20260903203516 | 67 | 167 | 4.0 | 8.0 | 0.00 | 0.00 | 0.00 | 75 | 1015.1 |
| 20260903202516 | 67 | 209 | 6.0 | 10.0 | 0.00 | 0.00 | 0.00 | 74 | 1015.1 |
| 20260903201516 | 67 | 160 | 3.0 | 9.0 | 0.00 | 0.00 | 0.00 | 75 | 1015.3 |
| 20260903200516 | 68 | 230 | 8.0 | 11.0 | 0.00 | 0.00 | 0.00 | 73 | 1015.3 |
| 20260903195516 | 68 | 166 | 3.0 | 6.0 | 0.00 | 0.00 | 0.00 | 74 | 1015.5 |
| 20260903194516 | 67 | 201 | 5.0 | 8.0 | 0.00 | 0.00 | 0.00 | 75 | 1015.5 |
| 20260903193516 | 67 | 204 | 2.0 | 6.0 | 0.00 | 0.00 | 0.00 | 76 | 1015.5 |
| 20260903192516 | 66 | 239 | 7.0 | 11.0 | 0.00 | 0.00 | 0.00 | 76 | 1015.6 |
| 20260903191516 | 66 | 198 | 2.0 | 7.0 | 0.00 | 0.00 | 0.00 | 76 | 1015.6 |
| 20260903190516 | 66 | 192 | 3.0 | 7.0 | 0.00 | 0.00 | 0.00 | 75 | 1015.8 |
| 20260903185516 | 66 | 228 | 5.0 | 7.0 | 0.00 | 0.00 | 0.00 | 76 | 1016.0 |
| 20260903184516 | 65 | 191 | 4.0 | 7.0 | 0.00 | 0.00 | 0.00 | 77 | 1016.2 |
| 20260903183516 | 66 | 215 | 4.0 | 7.0 | 0.00 | 0.00 | 0.00 | 75 | 1016.3 |
| 20260903182516 | 66 | 187 | 4.0 | 8.0 | 0.00 | 0.00 | 0.00 | 75 | 1016.4 |
| 20260903181516 | 66 | 193 | 3.0 | 6.0 | 0.00 | 0.00 | 0.00 | 75 | 1016.3 |
| 20260903180536 | 66 | 233 | 4.0 | 7.0 | 0.00 | 0.00 | 0.00 | 75 | 1016.4 |
| 20260903175536 | 66 | 152 | 4.0 | 7.0 | 0.00 | 0.00 | 0.00 | 75 | 1016.2 |
| 20260903174516 | 65 | 183 | 3.0 | 6.0 | 0.00 | 0.00 | 0.00 | 75 | 1016.2 |
| 20260903173536 | 66 | 122 | 5.0 | 9.0 | 0.00 | 0.00 | 0.00 | 75 | 1016.2 |
| 20260903172516 | 65 | 192 | 3.0 | 7.0 | 0.00 | 0.00 | 0.00 | 77 | 1016.4 |
| 20260903171516 | 64 | 160 | 3.0 | 6.0 | 0.00 | 0.00 | 0.00 | 77 | 1016.4 |
| 20260903170536 | 64 | 137 | 2.0 | 3.0 | 0.00 | 0.00 | 0.00 | 78 | 1016.3 |
| 20260903165516 | 64 | 230 | 2.0 | 4.0 | 0.00 | 0.00 | 0.00 | 77 | 1016.5 |
| 20260903164536 | 63 | 219 | 2.0 | 4.0 | 0.00 | 0.00 | 0.00 | 80 | 1016.3 |
| 20260903163536 | 63 | 260 | 3.0 | 5.0 | 0.00 | 0.00 | 0.00 | 79 | 1016.5 |
| 20260903162516 | 63 | 184 | 1.0 | 2.0 | 0.00 | 0.00 | 0.00 | 80 | 1016.6 |
| 20260903161516 | 62 | 114 | 1.0 | 2.0 | 0.00 | 0.00 | 0.00 | 82 | 1016.7 |
| 20260903160515 | 61 | 144 | 2.0 | 3.0 | 0.00 | 0.00 | 0.00 | 85 | 1016.8 |
| 20260903155515 | 60 | 189 | 0.0 | 1.0 | 0.00 | 0.00 | 0.00 | 87 | 1016.9 |
| 20260903154515 | 60 | 272 | 1.0 | 3.0 | 0.00 | 0.00 | 0.00 | 88 | 1016.8 |
| 20260903153515 | 59 | 13 | 1.0 | 2.0 | 0.00 | 0.00 | 0.00 | 91 | 1016.8 |
| 20260903152516 | 58 | 16 | 1.0 | 2.0 | 0.00 | 0.00 | 0.00 | 92 | 1016.8 |
| 20260903151515 | 58 | 0.0 | 1.0 | 0.00 | 0.00 | 0.00 | 93 | 1016.9 | |
| 20260903150515 | 56 | 42 | 0.0 | 1.0 | 0.00 | 0.00 | 0.00 | 93 | 1016.9 |
| 20260903145516 | 55 | 42 | 0.0 | 1.0 | 0.00 | 0.00 | 0.00 | 93 | 1016.9 |
| 20260903144556 | 54 | 41 | 1.0 | 2.0 | 0.00 | 0.00 | 0.00 | 93 | 1016.8 |
| 20260903143516 | 53 | 0.0 | 1.0 | 0.00 | 0.00 | 0.00 | 93 | 1016.8 | |
| 20260903142515 | 53 | 360 | 0.0 | 1.0 | 0.00 | 0.00 | 0.00 | 93 | 1016.7 |
| 20260903141516 | 53 | 360 | 0.0 | 1.0 | 0.00 | 0.00 | 0.00 | 93 | 1016.5 |
| 20260903140535 | 53 | 0.0 | 0.0 | 0.00 | 0.00 | 0.00 | 92 | 1016.4 | |
| 20260903135515 | 53 | 0.0 | 0.0 | 0.00 | 0.00 | 0.00 | 92 | 1016.4 | |
| 20260903134516 | 53 | 0.0 | 0.0 | 0.00 | 0.00 | 0.00 | 93 | 1016.3 | |
| 20260903133515 | 52 | 0.0 | 0.0 | 0.00 | 0.00 | 0.00 | 92 | 1016.3 | |
| 20260903132536 | 52 | 0.0 | 0.0 | 0.00 | 0.00 | 0.00 | 92 | 1016.2 | |
| 20260903131516 | 52 | 0.0 | 0.0 | 0.00 | 0.00 | 0.00 | 92 | 1016.1 | |
| 20260903130516 | 52 | 0.0 | 0.0 | 0.00 | 0.00 | 0.00 | 92 | 1016.1 | |
| 20260903125516 | 52 | 360 | 1.0 | 2.0 | 0.00 | 0.00 | 0.00 | 92 | 1016.1 |
| 20260903124516 | 52 | 0.0 | 1.0 | 0.00 | 0.00 | 0.00 | 92 | 1016.1 | |
| 20260903123516 | 52 | 0.0 | 0.0 | 0.00 | 0.00 | 0.00 | 92 | 1016.3 | |
| 20260903122515 | 53 | 0.0 | 0.0 | 0.00 | 0.00 | 0.00 | 92 | 1016.3 | |
| 20260903121515 | 52 | 360 | 0.0 | 1.0 | 0.00 | 0.00 | 0.00 | 92 | 1016.3 |
| 20260903120535 | 52 | 0.0 | 0.0 | 0.00 | 0.00 | 0.00 | 92 | 1016.3 | |
| 20260903115536 | 53 | 0.0 | 0.0 | 0.00 | 0.00 | 0.00 | 92 | 1016.4 | |
| 20260903114516 | 53 | 0.0 | 0.0 | 0.00 | 0.00 | 0.00 | 92 | 1016.4 | |
| 20260903113515 | 52 | 0.0 | 0.0 | 0.00 | 0.00 | 0.00 | 92 | 1016.5 | |
| 20260903112516 | 52 | 0.0 | 0.0 | 0.00 | 0.00 | 0.00 | 91 | 1016.6 | |
| 20260903111515 | 53 | 0.0 | 0.0 | 0.00 | 0.00 | 0.00 | 92 | 1016.7 | |
| 20260903110516 | 53 | 0.0 | 0.0 | 0.00 | 0.00 | 0.00 | 92 | 1016.7 | |
| 20260903105515 | 53 | 0.0 | 0.0 | 0.00 | 0.00 | 0.00 | 91 | 1016.8 | |
| 20260903104515 | 53 | 0.0 | 0.0 | 0.00 | 0.00 | 0.00 | 91 | 1016.8 | |
| 20260903103515 | 54 | 360 | 1.0 | 1.0 | 0.00 | 0.00 | 0.00 | 91 | 1016.8 |
| 20260903102535 | 54 | 0.0 | 1.0 | 0.00 | 0.00 | 0.00 | 91 | 1016.9 | |
| 20260903101515 | 54 | 0.0 | 0.0 | 0.00 | 0.00 | 0.00 | 92 | 1016.8 | |
| 20260903100515 | 54 | 360 | 0.0 | 1.0 | 0.00 | 0.00 | 0.00 | 91 | 1016.9 |
| 20260903095515 | 54 | 360 | 0.0 | 1.0 | 0.00 | 0.00 | 0.00 | 91 | 1016.9 |
| 20260903094515 | 54 | 0.0 | 0.0 | 0.00 | 0.00 | 0.00 | 91 | 1017.0 | |
| 20260903093515 | 54 | 0.0 | 0.0 | 0.00 | 0.00 | 0.00 | 91 | 1017.1 | |
| 20260903092515 | 54 | 22 | 0.0 | 1.0 | 0.00 | 0.00 | 0.00 | 91 | 1017.2 |